Time,TemperatureF,DewpointF,PressureIn,WindDirection,WindDirectionDegrees,WindSpeedMPH,WindSpeedGustMPH,Humidity,HourlyPrecipIn,Conditions,Clouds,dailyrainin,SoftwareType,DateUTC
2013-03-28 00:00:00,-5.0,-13.0,30.12,East,90,0.0,0.0,68,0.00,,,0.00,WUHU216HW,2013-03-28 08:00:00,
2013-03-28 00:05:00,-5.4,-13.4,30.12,ENE,68,0.0,0.0,68,0.00,,,0.00,WUHU216HW,2013-03-28 08:05:00,
2013-03-28 00:10:00,-5.8,-13.4,30.12,NE,45,0.0,0.2,69,0.00,,,0.00,WUHU216HW,2013-03-28 08:10:00,
2013-03-28 00:15:00,-6.1,-13.8,30.12,ENE,68,0.0,0.2,69,0.00,,,0.00,WUHU216HW,2013-03-28 08:15:00,
2013-03-28 00:20:00,-6.5,-14.1,30.11,ENE,68,0.0,0.0,69,0.00,,,0.00,WUHU216HW,2013-03-28 08:20:00,
2013-03-28 00:25:00,-6.8,-14.8,30.11,East,90,0.0,0.0,68,0.00,,,0.00,WUHU216HW,2013-03-28 08:25:00,
2013-03-28 00:30:00,-7.2,-15.0,30.11,East,90,0.0,0.0,68,0.00,,,0.00,WUHU216HW,2013-03-28 08:30:00,
2013-03-28 00:35:00,-7.6,-15.0,30.11,ESE,113,0.0,0.0,69,0.00,,,0.00,WUHU216HW,2013-03-28 08:35:00,
2013-03-28 00:40:00,-7.9,-15.1,30.11,East,90,0.0,0.0,70,0.00,,,0.00,WUHU216HW,2013-03-28 08:40:00,
2013-03-28 00:45:00,-8.1,-15.6,30.11,East,90,0.0,0.0,69,0.00,,,0.00,WUHU216HW,2013-03-28 08:45:00,
2013-03-28 00:50:00,-8.3,-15.7,30.11,East,90,0.0,0.0,69,0.00,,,0.00,WUHU216HW,2013-03-28 08:50:00,
2013-03-28 00:55:00,-8.6,-16.1,30.11,East,90,0.0,0.0,69,0.00,,,0.00,WUHU216HW,2013-03-28 08:55:00,
2013-03-28 01:00:00,-8.6,-15.8,30.11,North,0,0.0,0.0,70,0.00,,,0.00,WUHU216HW,2013-03-28 09:00:00,
2013-03-28 01:05:00,-9.0,-15.9,30.11,WNW,293,0.0,0.0,71,0.00,,,0.00,WUHU216HW,2013-03-28 09:05:00,
2013-03-28 01:10:00,-9.2,-16.4,30.11,NNW,338,0.0,0.0,70,0.00,,,0.00,WUHU216HW,2013-03-28 09:10:00,
2013-03-28 01:15:00,-9.5,-16.5,30.11,SE,128,0.3,0.4,71,0.00,,,0.00,WUHU216HW,2013-03-28 09:15:00,
2013-03-28 01:20:00,-9.9,-16.8,30.11,ENE,68,0.0,0.4,71,0.00,,,0.00,WUHU216HW,2013-03-28 09:20:00,
2013-03-28 01:25:00,-9.9,-16.3,30.11,ESE,113,0.0,0.2,73,0.00,,,0.00,WUHU216HW,2013-03-28 09:25:00,
2013-03-28 01:30:00,-10.1,-16.5,30.11,North,0,0.0,0.2,73,0.00,,,0.00,WUHU216HW,2013-03-28 09:30:00,
2013-03-28 01:35:00,-9.7,-16.1,30.11,East,90,0.0,0.0,73,0.00,,,0.00,WUHU216HW,2013-03-28 09:35:00,
2013-03-28 01:40:00,-10.1,-16.5,30.11,SSE,158,0.0,0.0,73,0.00,,,0.00,WUHU216HW,2013-03-28 09:40:00,
2013-03-28 01:45:00,-10.4,-16.8,30.11,ESE,113,0.0,0.0,73,0.00,,,0.00,WUHU216HW,2013-03-28 09:45:00,
2013-03-28 01:50:00,-10.4,-16.6,30.11,ESE,113,0.0,0.0,74,0.00,,,0.00,WUHU216HW,2013-03-28 09:50:00,
2013-03-28 01:55:00,-10.4,-16.6,30.11,North,0,0.0,0.0,74,0.00,,,0.00,WUHU216HW,2013-03-28 09:55:00,
2013-03-28 02:00:00,-10.3,-15.8,30.11,East,90,0.0,0.0,76,0.00,,,0.00,WUHU216HW,2013-03-28 10:00:00,
2013-03-28 02:05:00,-10.4,-16.6,30.11,ENE,68,0.0,0.0,74,0.00,,,0.00,WUHU216HW,2013-03-28 10:05:00,
2013-03-28 02:10:00,-10.4,-16.8,30.11,NNE,23,0.0,0.0,73,0.00,,,0.00,WUHU216HW,2013-03-28 10:10:00,
2013-03-28 02:15:00,-11.2,-17.5,30.11,ESE,113,0.0,0.0,73,0.00,,,0.00,WUHU216HW,2013-03-28 10:15:00,
2013-03-28 02:20:00,-11.2,-17.3,30.11,SE,135,0.0,0.0,74,0.00,,,0.00,WUHU216HW,2013-03-28 10:20:00,
2013-03-28 02:25:00,-11.2,-17.3,30.11,ESE,113,0.0,0.2,74,0.00,,,0.00,WUHU216HW,2013-03-28 10:25:00,
2013-03-28 02:30:00,-11.7,-17.8,30.11,NW,315,0.0,0.4,74,0.00,,,0.00,WUHU216HW,2013-03-28 10:30:00,
2013-03-28 02:35:00,-11.7,-17.8,30.11,NE,45,0.0,0.4,74,0.00,,,0.00,WUHU216HW,2013-03-28 10:35:00,
2013-03-28 02:40:00,-11.2,-16.7,30.10,ESE,113,0.0,0.0,76,0.00,,,0.00,WUHU216HW,2013-03-28 10:40:00,
2013-03-28 02:45:00,-11.9,-18.0,30.10,ESE,113,0.0,0.4,74,0.00,,,0.00,WUHU216HW,2013-03-28 10:45:00,
2013-03-28 02:50:00,-11.9,-17.7,30.10,North,0,0.0,0.4,75,0.00,,,0.00,WUHU216HW,2013-03-28 10:50:00,
2013-03-28 02:55:00,-12.1,-17.6,30.10,NE,45,0.0,0.4,76,0.00,,,0.00,WUHU216HW,2013-03-28 10:55:00,
2013-03-28 03:00:00,-12.2,-17.8,30.10,ESE,113,0.0,0.0,76,0.00,,,0.00,WUHU216HW,2013-03-28 11:00:00,
2013-03-28 03:05:00,-12.4,-18.2,30.10,ESE,113,0.0,0.0,75,0.00,,,0.00,WUHU216HW,2013-03-28 11:05:00,
2013-03-28 03:10:00,-12.6,-18.3,30.10,NE,45,0.0,0.0,75,0.00,,,0.00,WUHU216HW,2013-03-28 11:10:00,
2013-03-28 03:15:00,-13.0,-18.7,30.10,NNW,338,0.0,0.2,75,0.00,,,0.00,WUHU216HW,2013-03-28 11:15:00,
2013-03-28 03:20:00,-13.1,-18.9,30.10,ESE,113,0.2,0.2,75,0.00,,,0.00,WUHU216HW,2013-03-28 11:20:00,
2013-03-28 03:25:00,-13.5,-19.3,30.10,SE,135,0.0,0.2,75,0.00,,,0.00,WUHU216HW,2013-03-28 11:25:00,
2013-03-28 03:30:00,-13.7,-19.7,30.10,NE,45,0.0,0.0,74,0.00,,,0.00,WUHU216HW,2013-03-28 11:30:00,
2013-03-28 03:35:00,-13.7,-19.4,30.10,North,0,0.0,0.0,75,0.00,,,0.00,WUHU216HW,2013-03-28 11:35:00,
2013-03-28 03:40:00,-13.9,-19.6,30.09,NNW,338,0.0,0.0,75,0.00,,,0.00,WUHU216HW,2013-03-28 11:40:00,
2013-03-28 03:45:00,-14.0,-19.5,30.10,SE,135,0.0,0.0,76,0.00,,,0.00,WUHU216HW,2013-03-28 11:45:00,
2013-03-28 03:50:00,-14.0,-19.8,30.10,ESE,113,0.0,0.0,75,0.00,,,0.00,WUHU216HW,2013-03-28 11:50:00,
2013-03-28 03:55:00,-14.4,-20.4,30.10,SE,135,0.0,0.0,74,0.00,,,0.00,WUHU216HW,2013-03-28 11:55:00,
2013-03-28 04:00:00,-14.6,-20.6,30.09,North,0,0.0,0.0,74,0.00,,,0.00,WUHU216HW,2013-03-28 12:00:00,
2013-03-28 04:05:00,-14.8,-20.8,30.09,NE,45,0.0,0.0,74,0.00,,,0.00,WUHU216HW,2013-03-28 12:05:00,
2013-03-28 04:10:00,-14.9,-21.0,30.09,ESE,113,0.0,0.0,74,0.00,,,0.00,WUHU216HW,2013-03-28 12:10:00,
2013-03-28 04:15:00,-15.1,-21.1,30.09,ENE,68,0.0,0.0,74,0.00,,,0.00,WUHU216HW,2013-03-28 12:15:00,
2013-03-28 04:20:00,-14.9,-21.0,30.09,West,270,0.0,0.0,74,0.00,,,0.00,WUHU216HW,2013-03-28 12:20:00,
2013-03-28 04:25:00,-15.1,-21.1,30.09,ESE,113,0.0,0.0,74,0.00,,,0.00,WUHU216HW,2013-03-28 12:25:00,
2013-03-28 04:30:00,-15.5,-21.5,30.09,NW,315,0.0,0.0,74,0.00,,,0.00,WUHU216HW,2013-03-28 12:30:00,
2013-03-28 04:35:00,-15.5,-21.5,30.09,North,0,0.0,0.0,74,0.00,,,0.00,WUHU216HW,2013-03-28 12:35:00,
2013-03-28 04:40:00,-15.8,-21.9,30.09,North,0,0.0,0.0,74,0.00,,,0.00,WUHU216HW,2013-03-28 12:40:00,
2013-03-28 04:45:00,-15.8,-21.9,30.09,NNW,338,0.0,0.0,74,0.00,,,0.00,WUHU216HW,2013-03-28 12:45:00,
2013-03-28 04:50:00,-16.0,-22.0,30.09,SE,135,0.2,0.2,74,0.00,,,0.00,WUHU216HW,2013-03-28 12:50:00,
2013-03-28 04:55:00,-16.2,-22.2,30.09,North,0,0.0,0.2,74,0.00,,,0.00,WUHU216HW,2013-03-28 12:55:00,
2013-03-28 05:00:00,-16.4,-22.4,30.08,NE,45,0.0,0.0,74,0.00,,,0.00,WUHU216HW,2013-03-28 13:00:00,
2013-03-28 05:05:00,-16.4,-22.1,30.09,ESE,113,0.0,0.0,75,0.00,,,0.00,WUHU216HW,2013-03-28 13:05:00,
2013-03-28 05:10:00,-16.9,-22.8,30.09,ESE,113,0.0,0.0,74,0.00,,,0.00,WUHU216HW,2013-03-28 13:10:00,
2013-03-28 05:15:00,-16.9,-22.7,30.09,North,0,0.0,0.0,75,0.00,,,0.00,WUHU216HW,2013-03-28 13:15:00,
2013-03-28 05:20:00,-16.9,-22.7,30.08,SE,135,0.0,0.0,75,0.00,,,0.00,WUHU216HW,2013-03-28 13:20:00,
2013-03-28 05:25:00,-16.9,-22.8,30.08,ESE,113,0.0,0.0,74,0.00,,,0.00,WUHU216HW,2013-03-28 13:25:00,
2013-03-28 05:30:00,-16.9,-22.7,30.08,ESE,113,0.2,0.2,75,0.00,,,0.00,WUHU216HW,2013-03-28 13:30:00,
2013-03-28 05:35:00,-16.9,-22.8,30.08,NNE,23,0.0,0.2,74,0.00,,,0.00,WUHU216HW,2013-03-28 13:35:00,
2013-03-28 05:40:00,-16.9,-22.7,30.08,ENE,68,0.0,0.2,75,0.00,,,0.00,WUHU216HW,2013-03-28 13:40:00,
2013-03-28 05:45:00,-17.1,-23.0,30.08,SE,135,0.4,0.7,74,0.00,,,0.00,WUHU216HW,2013-03-28 13:45:00,
2013-03-28 05:50:00,-17.3,-23.2,30.08,NW,315,0.2,0.7,74,0.00,,,0.00,WUHU216HW,2013-03-28 13:50:00,
2013-03-28 05:55:00,-17.3,-22.9,30.08,ENE,68,0.0,0.2,75,0.00,,,0.00,WUHU216HW,2013-03-28 13:55:00,
2013-03-28 06:00:00,-17.3,-23.2,30.08,SE,135,0.0,0.0,74,0.00,,,0.00,WUHU216HW,2013-03-28 14:00:00,
2013-03-28 06:05:00,-17.1,-23.3,30.08,SE,135,0.0,0.0,73,0.00,,,0.00,WUHU216HW,2013-03-28 14:05:00,
2013-03-28 06:10:00,-17.5,-23.4,30.08,SE,135,0.0,0.0,74,0.00,,,0.00,WUHU216HW,2013-03-28 14:10:00,
2013-03-28 06:15:00,-17.3,-23.5,30.08,NNW,338,0.0,0.0,73,0.00,,,0.00,WUHU216HW,2013-03-28 14:15:00,
2013-03-28 06:20:00,-17.3,-23.5,30.08,ENE,68,0.0,0.0,73,0.00,,,0.00,WUHU216HW,2013-03-28 14:20:00,
2013-03-28 06:25:00,-17.1,-23.3,30.07,East,90,0.0,0.0,73,0.00,,,0.00,WUHU216HW,2013-03-28 14:25:00,
2013-03-28 06:30:00,-17.5,-23.7,30.07,ENE,68,0.0,0.0,73,0.00,,,0.00,WUHU216HW,2013-03-28 14:30:00,
2013-03-28 06:35:00,-17.6,-23.7,30.08,North,0,0.0,0.0,73,0.00,,,0.00,WUHU216HW,2013-03-28 14:35:00,
2013-03-28 06:40:00,-17.8,-23.9,30.08,ENE,68,0.0,0.0,73,0.00,,,0.00,WUHU216HW,2013-03-28 14:40:00,
2013-03-28 06:45:00,-17.6,-23.7,30.08,WNW,293,0.0,0.0,73,0.00,,,0.00,WUHU216HW,2013-03-28 14:45:00,
2013-03-28 06:50:00,-17.5,-23.7,30.08,WSW,248,0.0,0.2,73,0.00,,,0.00,WUHU216HW,2013-03-28 14:50:00,
2013-03-28 06:55:00,-17.5,-23.7,30.07,SE,135,0.0,0.2,73,0.00,,,0.00,WUHU216HW,2013-03-28 14:55:00,
2013-03-28 07:00:00,-17.6,-23.7,30.07,WSW,248,0.0,0.0,73,0.00,,,0.00,WUHU216HW,2013-03-28 15:00:00,
2013-03-28 07:05:00,-17.6,-23.7,30.07,SE,135,0.0,0.0,73,0.00,,,0.00,WUHU216HW,2013-03-28 15:05:00,
2013-03-28 07:10:00,-17.6,-23.7,30.07,NNE,23,0.0,0.0,73,0.00,,,0.00,WUHU216HW,2013-03-28 15:10:00,
2013-03-28 07:15:00,-17.8,-24.2,30.07,West,270,0.0,0.0,72,0.00,,,0.00,WUHU216HW,2013-03-28 15:15:00,
2013-03-28 07:20:00,-18.2,-24.3,30.07,SE,135,0.0,0.2,73,0.00,,,0.00,WUHU216HW,2013-03-28 15:20:00,
2013-03-28 07:25:00,-18.2,-24.3,30.07,South,180,0.0,0.2,73,0.00,,,0.00,WUHU216HW,2013-03-28 15:25:00,
2013-03-28 07:30:00,-18.4,-24.5,30.06,SE,135,0.0,0.0,73,0.00,,,0.00,WUHU216HW,2013-03-28 15:30:00,
2013-03-28 07:35:00,-18.4,-24.5,30.06,SE,135,0.0,0.0,73,0.00,,,0.00,WUHU216HW,2013-03-28 15:35:00,
2013-03-28 07:40:00,-18.4,-24.5,30.06,SW,225,0.0,0.0,73,0.00,,,0.00,WUHU216HW,2013-03-28 15:40:00,
2013-03-28 07:45:00,-18.0,-24.1,30.06,ESE,113,0.0,0.0,73,0.00,,,0.00,WUHU216HW,2013-03-28 15:45:00,
2013-03-28 07:50:00,-17.8,-23.9,30.06,East,90,0.0,0.0,73,0.00,,,0.00,WUHU216HW,2013-03-28 15:50:00,
2013-03-28 07:55:00,-18.0,-24.1,30.06,South,180,0.0,0.0,73,0.00,,,0.00,WUHU216HW,2013-03-28 15:55:00,
2013-03-28 08:00:00,-17.6,-24.0,30.06,SSE,158,0.0,0.0,72,0.00,,,0.00,WUHU216HW,2013-03-28 16:00:00,
2013-03-28 08:05:00,-17.6,-24.0,30.06,SSW,203,0.0,0.0,72,0.00,,,0.00,WUHU216HW,2013-03-28 16:05:00,
2013-03-28 08:10:00,-17.3,-23.5,30.06,South,180,0.0,0.0,73,0.00,,,0.00,WUHU216HW,2013-03-28 16:10:00,
2013-03-28 08:15:00,-17.3,-23.8,30.06,West,270,0.0,0.0,72,0.00,,,0.00,WUHU216HW,2013-03-28 16:15:00,
2013-03-28 08:20:00,-17.1,-23.6,30.06,SW,225,0.0,0.0,72,0.00,,,0.00,WUHU216HW,2013-03-28 16:20:00,
2013-03-28 08:25:00,-16.9,-23.1,30.06,SW,225,0.0,0.0,73,0.00,,,0.00,WUHU216HW,2013-03-28 16:25:00,
2013-03-28 08:30:00,-16.2,-22.5,30.06,SSW,203,0.0,0.0,73,0.00,,,0.00,WUHU216HW,2013-03-28 16:30:00,
2013-03-28 08:35:00,-16.0,-22.3,30.06,ENE,68,0.0,0.0,73,0.00,,,0.00,WUHU216HW,2013-03-28 16:35:00,
2013-03-28 08:40:00,-15.5,-21.5,30.06,ENE,68,0.0,0.0,74,0.00,,,0.00,WUHU216HW,2013-03-28 16:40:00,
2013-03-28 08:45:00,-15.1,-21.1,30.06,ENE,68,0.0,0.0,74,0.00,,,0.00,WUHU216HW,2013-03-28 16:45:00,
2013-03-28 08:50:00,-14.6,-20.3,30.06,East,90,0.0,0.0,75,0.00,,,0.00,WUHU216HW,2013-03-28 16:50:00,
2013-03-28 08:55:00,-13.5,-19.0,30.06,NE,45,0.0,0.0,76,0.00,,,0.00,WUHU216HW,2013-03-28 16:55:00,
2013-03-28 09:00:00,-12.6,-18.3,30.05,NE,45,0.0,0.0,75,0.00,,,0.00,WUHU216HW,2013-03-28 17:00:00,
2013-03-28 09:05:00,-11.7,-17.5,30.05,NE,45,0.0,0.0,75,0.00,,,0.00,WUHU216HW,2013-03-28 17:05:00,
2013-03-28 09:10:00,-10.8,-16.4,30.05,ENE,68,0.0,0.0,76,0.00,,,0.00,WUHU216HW,2013-03-28 17:10:00,
2013-03-28 09:15:00,-9.9,-15.7,30.05,NE,45,0.0,0.0,75,0.00,,,0.00,WUHU216HW,2013-03-28 17:15:00,
2013-03-28 09:20:00,-9.2,-15.0,30.05,NE,45,0.0,0.0,75,0.00,,,0.00,WUHU216HW,2013-03-28 17:20:00,
2013-03-28 09:25:00,-8.5,-14.1,30.05,ENE,68,0.0,0.0,76,0.00,,,0.00,WUHU216HW,2013-03-28 17:25:00,
2013-03-28 09:30:00,-7.6,-13.2,30.04,North,0,0.0,0.0,76,0.00,,,0.00,WUHU216HW,2013-03-28 17:30:00,
2013-03-28 09:35:00,-6.8,-12.6,30.04,NNE,23,0.2,0.2,76,0.00,,,0.00,WUHU216HW,2013-03-28 17:35:00,
2013-03-28 09:40:00,-5.9,-11.4,30.04,NNW,338,0.0,0.2,77,0.00,,,0.00,WUHU216HW,2013-03-28 17:40:00,
2013-03-28 09:45:00,-5.4,-11.2,30.04,NNW,338,0.0,0.2,76,0.00,,,0.00,WUHU216HW,2013-03-28 17:45:00,
2013-03-28 09:50:00,-4.9,-10.6,30.04,NNW,338,0.2,0.7,76,0.00,,,0.00,WUHU216HW,2013-03-28 17:50:00,
2013-03-28 09:55:00,-4.0,-10.0,30.04,NW,315,0.0,0.7,75,0.00,,,0.00,WUHU216HW,2013-03-28 17:55:00,
2013-03-28 10:00:00,-2.5,-8.5,30.04,West,270,0.2,0.2,75,0.00,,,0.00,WUHU216HW,2013-03-28 18:00:00,
2013-03-28 10:05:00,0.4,-5.7,30.04,NW,315,0.0,0.2,75,0.00,,,0.00,WUHU216HW,2013-03-28 18:05:00,
2013-03-28 10:10:00,4.5,-2.6,30.04,NE,45,0.0,0.0,72,0.00,,,0.00,WUHU216HW,2013-03-28 18:10:00,
2013-03-28 10:15:00,4.5,-4.1,30.04,ESE,113,0.0,0.0,67,0.00,,,0.00,WUHU216HW,2013-03-28 18:15:00,
2013-03-28 10:20:00,2.0,-6.6,30.03,ENE,68,0.2,0.4,67,0.00,,,0.00,WUHU216HW,2013-03-28 18:20:00,
2013-03-28 10:25:00,1.4,-7.1,30.03,NNE,23,0.0,0.4,67,0.00,,,0.00,WUHU216HW,2013-03-28 18:25:00,
2013-03-28 10:30:00,2.0,-6.2,30.04,NNE,23,0.0,0.2,68,0.00,,,0.00,WUHU216HW,2013-03-28 18:30:00,
2013-03-28 10:35:00,3.2,-5.3,30.03,North,0,0.4,0.4,67,0.00,,,0.00,WUHU216HW,2013-03-28 18:35:00,
2013-03-28 10:40:00,6.1,-2.0,30.03,NW,315,0.0,0.4,69,0.00,,,0.00,WUHU216HW,2013-03-28 18:40:00,
2013-03-28 10:45:00,9.7,0.9,30.03,NW,315,0.0,0.4,67,0.00,,,0.00,WUHU216HW,2013-03-28 18:45:00,
2013-03-28 10:50:00,11.9,1.9,30.03,NE,45,0.0,0.2,64,0.00,,,0.00,WUHU216HW,2013-03-28 18:50:00,
2013-03-28 10:55:00,11.0,-0.6,30.03,SSE,158,0.4,0.4,59,0.00,,,0.00,WUHU216HW,2013-03-28 18:55:00,
2013-03-28 11:00:00,9.0,-2.5,30.03,NW,315,0.0,0.4,59,0.00,,,0.00,WUHU216HW,2013-03-28 19:00:00,
2013-03-28 11:05:00,10.4,-0.3,30.03,NNE,23,0.0,0.0,61,0.00,,,0.00,WUHU216HW,2013-03-28 19:05:00,
2013-03-28 11:10:00,13.1,1.5,30.03,NNW,338,0.0,0.7,59,0.00,,,0.00,WUHU216HW,2013-03-28 19:10:00,
2013-03-28 11:15:00,15.5,4.0,30.03,NNE,23,0.0,0.7,60,0.00,,,0.00,WUHU216HW,2013-03-28 19:15:00,
2013-03-28 11:20:00,17.6,4.5,30.03,East,90,0.0,0.0,56,0.00,,,0.00,WUHU216HW,2013-03-28 19:20:00,
2013-03-28 11:25:00,16.9,1.5,30.03,NNE,23,0.0,0.4,50,0.00,,,0.00,WUHU216HW,2013-03-28 19:25:00,
2013-03-28 11:30:00,14.0,-1.7,30.03,SSE,158,0.0,1.3,49,0.00,,,0.00,WUHU216HW,2013-03-28 19:30:00,
2013-03-28 11:35:00,14.6,0.1,30.03,NW,315,2.5,2.5,52,0.00,,,0.00,WUHU216HW,2013-03-28 19:35:00,
2013-03-28 11:40:00,17.3,2.3,30.03,North,357,0.8,2.5,51,0.00,,,0.00,WUHU216HW,2013-03-28 19:40:00,
2013-03-28 11:45:00,18.0,2.5,30.03,ESE,113,0.0,1.8,50,0.00,,,0.00,WUHU216HW,2013-03-28 19:45:00,
2013-03-28 11:50:00,16.9,0.1,30.02,WSW,256,0.7,1.8,47,0.00,,,0.00,WUHU216HW,2013-03-28 19:50:00,
2013-03-28 11:55:00,16.2,-0.1,30.02,ENE,68,0.9,2.2,48,0.00,,,0.00,WUHU216HW,2013-03-28 19:55:00,
2013-03-28 12:00:00,17.6,1.3,30.02,NE,45,0.7,2.2,48,0.00,,,0.00,WUHU216HW,2013-03-28 20:00:00,
2013-03-28 12:05:00,20.0,2.9,30.01,SSW,203,0.4,2.2,47,0.00,,,0.00,WUHU216HW,2013-03-28 20:05:00,
2013-03-28 12:10:00,19.8,2.7,30.02,West,270,0.9,1.6,47,0.00,,,0.00,WUHU216HW,2013-03-28 20:10:00,
2013-03-28 12:15:00,18.4,0.5,30.01,NW,315,0.8,1.1,45,0.00,,,0.00,WUHU216HW,2013-03-28 20:15:00,
2013-03-28 12:20:00,18.9,1.5,30.01,NNW,338,1.1,1.1,46,0.00,,,0.00,WUHU216HW,2013-03-28 20:20:00,
2013-03-28 12:25:00,20.5,4.3,30.01,SW,225,0.0,1.1,49,0.00,,,0.00,WUHU216HW,2013-03-28 20:25:00,
2013-03-28 12:30:00,20.5,2.9,30.01,NW,315,0.2,0.2,46,0.00,,,0.00,WUHU216HW,2013-03-28 20:30:00,
2013-03-28 12:35:00,20.3,1.8,30.01,NNE,23,0.4,0.9,44,0.00,,,0.00,WUHU216HW,2013-03-28 20:35:00,
2013-03-28 12:40:00,20.5,2.4,30.01,SW,225,0.7,0.9,45,0.00,,,0.00,WUHU216HW,2013-03-28 20:40:00,
2013-03-28 12:45:00,21.4,3.3,30.01,NE,45,0.4,1.1,45,0.00,,,0.00,WUHU216HW,2013-03-28 20:45:00,
2013-03-28 12:50:00,22.0,3.2,30.01,NE,56,0.8,1.1,44,0.00,,,0.00,WUHU216HW,2013-03-28 20:50:00,
2013-03-28 12:55:00,22.0,3.2,30.01,NNE,23,0.9,1.6,44,0.00,,,0.00,WUHU216HW,2013-03-28 20:55:00,
2013-03-28 13:00:00,22.1,3.0,30.01,NE,45,1.1,1.6,43,0.00,,,0.00,WUHU216HW,2013-03-28 21:00:00,
2013-03-28 13:05:00,22.5,3.8,30.01,NNW,338,0.7,1.3,44,0.00,,,0.00,WUHU216HW,2013-03-28 21:05:00,
2013-03-28 13:10:00,22.7,3.0,30.00,NNE,23,1.8,1.8,42,0.00,,,0.00,WUHU216HW,2013-03-28 21:10:00,
2013-03-28 13:15:00,23.0,3.8,30.00,North,8,0.6,1.8,43,0.00,,,0.00,WUHU216HW,2013-03-28 21:15:00,
2013-03-28 13:20:00,23.8,4.0,30.00,NE,45,0.0,1.1,42,0.00,,,0.00,WUHU216HW,2013-03-28 21:20:00,
2013-03-28 13:25:00,24.5,4.2,29.99,SE,135,0.9,0.9,41,0.00,,,0.00,WUHU216HW,2013-03-28 21:25:00,
2013-03-28 13:30:00,25.0,3.5,29.99,SSE,158,1.1,1.8,39,0.00,,,0.00,WUHU216HW,2013-03-28 21:30:00,
2013-03-28 13:35:00,25.6,4.0,29.99,NNW,338,1.1,1.8,39,0.00,,,0.00,WUHU216HW,2013-03-28 21:35:00,
2013-03-28 13:40:00,25.4,3.9,29.99,WNW,293,0.4,2.5,39,0.00,,,0.00,WUHU216HW,2013-03-28 21:40:00,
2013-03-28 13:45:00,25.2,3.7,29.99,ESE,122,0.6,2.5,39,0.00,,,0.00,WUHU216HW,2013-03-28 21:45:00,
2013-03-28 13:50:00,25.6,4.6,29.98,South,180,0.7,1.1,40,0.00,,,0.00,WUHU216HW,2013-03-28 21:50:00,
2013-03-28 13:55:00,26.3,5.2,29.98,SSE,150,1.0,1.1,40,0.00,,,0.00,WUHU216HW,2013-03-28 21:55:00,
2013-03-28 14:00:00,27.7,5.3,29.98,NNW,338,1.8,1.8,38,0.00,,,0.00,WUHU216HW,2013-03-28 22:00:00,
2013-03-28 14:05:00,29.2,5.9,29.98,ENE,68,0.9,2.2,37,0.00,,,0.00,WUHU216HW,2013-03-28 22:05:00,
2013-03-28 14:10:00,30.1,6.8,29.98,ESE,113,1.6,2.2,37,0.00,,,0.00,WUHU216HW,2013-03-28 22:10:00,
2013-03-28 14:15:00,28.8,5.1,29.98,SE,135,1.1,1.6,36,0.00,,,0.00,WUHU216HW,2013-03-28 22:15:00,
2013-03-28 14:20:00,27.7,5.3,29.98,NW,314,1.8,2.5,38,0.00,,,0.00,WUHU216HW,2013-03-28 22:20:00,
2013-03-28 14:25:00,27.7,5.3,29.97,ESE,113,0.4,2.5,38,0.00,,,0.00,WUHU216HW,2013-03-28 22:25:00,
2013-03-28 14:30:00,27.9,6.8,29.98,ENE,68,0.4,1.1,40,0.00,,,0.00,WUHU216HW,2013-03-28 22:30:00,
2013-03-28 14:35:00,28.4,5.3,29.97,SSE,158,1.3,1.3,37,0.00,,,0.00,WUHU216HW,2013-03-28 22:35:00,
2013-03-28 14:40:00,30.1,8.6,29.97,North,0,0.0,1.3,40,0.00,,,0.00,WUHU216HW,2013-03-28 22:40:00,
2013-03-28 14:45:00,31.7,8.2,29.97,ENE,68,1.1,1.6,37,0.00,,,0.00,WUHU216HW,2013-03-28 22:45:00,
2013-03-28 14:50:00,31.1,7.7,29.97,ESE,113,1.1,1.6,37,0.00,,,0.00,WUHU216HW,2013-03-28 22:50:00,
2013-03-28 14:55:00,29.7,6.5,29.96,SSW,203,0.0,2.2,37,0.00,,,0.00,WUHU216HW,2013-03-28 22:55:00,
2013-03-28 15:00:00,29.2,6.6,29.96,NNW,338,0.7,2.2,38,0.00,,,0.00,WUHU216HW,2013-03-28 23:00:00,
2013-03-28 15:05:00,29.3,6.8,29.96,NNW,338,1.1,1.8,38,0.00,,,0.00,WUHU216HW,2013-03-28 23:05:00,
2013-03-28 15:10:00,29.2,5.9,29.96,NNE,12,1.6,2.0,37,0.00,,,0.00,WUHU216HW,2013-03-28 23:10:00,
2013-03-28 15:15:00,29.2,7.2,29.96,East,90,0.0,2.0,39,0.00,,,0.00,WUHU216HW,2013-03-28 23:15:00,
2013-03-28 15:20:00,29.3,7.4,29.95,SE,135,1.1,1.1,39,0.00,,,0.00,WUHU216HW,2013-03-28 23:20:00,
2013-03-28 15:25:00,29.5,6.9,29.95,SE,135,0.4,1.8,38,0.00,,,0.00,WUHU216HW,2013-03-28 23:25:00,
2013-03-28 15:30:00,29.5,6.9,29.95,ENE,68,0.4,2.7,38,0.00,,,0.00,WUHU216HW,2013-03-28 23:30:00,
2013-03-28 15:35:00,29.9,7.2,29.95,NNE,23,3.4,3.4,38,0.00,,,0.00,WUHU216HW,2013-03-28 23:35:00,
2013-03-28 15:40:00,29.9,7.8,29.95,North,0,0.0,3.4,39,0.00,,,0.00,WUHU216HW,2013-03-28 23:40:00,
2013-03-28 15:45:00,30.1,8.0,29.95,NE,45,1.1,3.4,39,0.00,,,0.00,WUHU216HW,2013-03-28 23:45:00,
2013-03-28 15:50:00,30.4,8.4,29.95,WSW,248,0.4,1.8,39,0.00,,,0.00,WUHU216HW,2013-03-28 23:50:00,
2013-03-28 15:55:00,30.6,7.9,29.95,NE,45,0.7,1.8,38,0.00,,,0.00,WUHU216HW,2013-03-28 23:55:00,
2013-03-28 16:00:00,30.8,8.6,29.94,NE,45,1.8,1.8,39,0.00,,,0.00,WUHU216HW,2013-03-29 00:00:00,
2013-03-28 16:05:00,30.8,8.0,29.94,NE,56,0.8,3.4,38,0.00,,,0.00,WUHU216HW,2013-03-29 00:05:00,
2013-03-28 16:10:00,31.0,7.6,29.94,NNW,338,0.4,3.4,37,0.00,,,0.00,WUHU216HW,2013-03-29 00:10:00,
2013-03-28 16:15:00,31.0,8.2,29.94,SE,135,1.1,1.8,38,0.00,,,0.00,WUHU216HW,2013-03-29 00:15:00,
2013-03-28 16:20:00,31.1,9.0,29.94,NE,45,1.1,1.1,39,0.00,,,0.00,WUHU216HW,2013-03-29 00:20:00,
2013-03-28 16:25:00,31.3,8.6,29.93,East,90,0.2,2.7,38,0.00,,,0.00,WUHU216HW,2013-03-29 00:25:00,
2013-03-28 16:30:00,31.5,8.7,29.93,NW,315,2.7,2.7,38,0.00,,,0.00,WUHU216HW,2013-03-29 00:30:00,
2013-03-28 16:35:00,31.9,9.0,29.93,NE,49,0.6,2.7,38,0.00,,,0.00,WUHU216HW,2013-03-29 00:35:00,
2013-03-28 16:40:00,32.0,9.8,29.93,ESE,114,1.2,1.8,39,0.00,,,0.00,WUHU216HW,2013-03-29 00:40:00,
2013-03-28 16:45:00,32.2,10.6,29.93,NNW,338,2.5,2.5,40,0.00,,,0.00,WUHU216HW,2013-03-29 00:45:00,
2013-03-28 16:50:00,32.2,10.6,29.93,NE,45,0.8,2.5,40,0.00,,,0.00,WUHU216HW,2013-03-29 00:50:00,
2013-03-28 16:55:00,32.4,10.2,29.93,ESE,113,0.4,1.6,39,0.00,,,0.00,WUHU216HW,2013-03-29 00:55:00,
2013-03-28 17:00:00,32.4,10.2,29.92,NE,45,1.3,1.6,39,0.00,,,0.00,WUHU216HW,2013-03-29 01:00:00,
2013-03-28 17:05:00,32.8,10.4,29.92,North,0,0.7,1.3,39,0.00,,,0.00,WUHU216HW,2013-03-29 01:05:00,
2013-03-28 17:10:00,32.8,10.4,29.92,NNW,338,1.1,1.1,39,0.00,,,0.00,WUHU216HW,2013-03-29 01:10:00,
2013-03-28 17:15:00,32.8,10.4,29.92,North,0,1.3,1.8,39,0.00,,,0.00,WUHU216HW,2013-03-29 01:15:00,
2013-03-28 17:20:00,32.8,10.4,29.92,SE,128,0.6,2.0,39,0.00,,,0.00,WUHU216HW,2013-03-29 01:20:00,
2013-03-28 17:25:00,32.8,11.1,29.91,SE,142,0.4,2.0,40,0.00,,,0.00,WUHU216HW,2013-03-29 01:25:00,
2013-03-28 17:30:00,32.8,11.1,29.91,West,270,0.7,0.7,40,0.00,,,0.00,WUHU216HW,2013-03-29 01:30:00,
2013-03-28 17:35:00,32.8,11.1,29.91,West,270,0.4,3.4,40,0.00,,,0.00,WUHU216HW,2013-03-29 01:35:00,
2013-03-28 17:40:00,32.9,11.3,29.91,NW,315,1.1,3.4,40,0.00,,,0.00,WUHU216HW,2013-03-29 01:40:00,
2013-03-28 17:45:00,32.9,11.3,29.91,NNW,338,0.4,1.1,40,0.00,,,0.00,WUHU216HW,2013-03-29 01:45:00,
2013-03-28 17:50:00,33.5,11.7,29.91,ENE,68,0.7,1.1,40,0.00,,,0.00,WUHU216HW,2013-03-29 01:50:00,
2013-03-28 17:55:00,33.8,12.1,29.91,NNW,338,0.9,1.1,40,0.00,,,0.00,WUHU216HW,2013-03-29 01:55:00,
2013-03-28 18:00:00,34.0,11.6,29.91,NE,45,0.4,0.9,39,0.00,,,0.00,WUHU216HW,2013-03-29 02:00:00,
2013-03-28 18:05:00,34.2,12.4,29.91,West,270,0.7,0.7,40,0.00,,,0.00,WUHU216HW,2013-03-29 02:05:00,
2013-03-28 18:10:00,34.4,12.5,29.91,NW,315,1.6,1.6,40,0.00,,,0.00,WUHU216HW,2013-03-29 02:10:00,
2013-03-28 18:15:00,34.7,12.9,29.91,NNE,23,0.7,1.6,40,0.00,,,0.00,WUHU216HW,2013-03-29 02:15:00,
2013-03-28 18:20:00,34.6,12.1,29.91,NNE,23,0.2,0.9,39,0.00,,,0.00,WUHU216HW,2013-03-29 02:20:00,
2013-03-28 18:25:00,34.4,11.9,29.92,East,90,0.4,0.4,39,0.00,,,0.00,WUHU216HW,2013-03-29 02:25:00,
2013-03-28 18:30:00,34.2,12.4,29.91,SSE,158,0.0,0.4,40,0.00,,,0.00,WUHU216HW,2013-03-29 02:30:00,
2013-03-28 18:35:00,33.8,11.4,29.91,ESE,113,0.4,0.4,39,0.00,,,0.00,WUHU216HW,2013-03-29 02:35:00,
2013-03-28 18:40:00,33.5,11.7,29.91,North,0,0.0,0.4,40,0.00,,,0.00,WUHU216HW,2013-03-29 02:40:00,
2013-03-28 18:45:00,33.5,12.2,29.91,SE,135,0.0,0.4,41,0.00,,,0.00,WUHU216HW,2013-03-29 02:45:00,
2013-03-28 18:50:00,33.3,12.1,29.90,NE,45,0.0,0.4,41,0.00,,,0.00,WUHU216HW,2013-03-29 02:50:00,
2013-03-28 18:55:00,33.5,11.7,29.91,ESE,113,0.0,1.1,40,0.00,,,0.00,WUHU216HW,2013-03-29 02:55:00,
2013-03-28 19:00:00,33.1,12.4,29.91,NNW,338,0.0,1.1,42,0.00,,,0.00,WUHU216HW,2013-03-29 03:00:00,
2013-03-28 19:05:00,32.8,12.1,29.91,SE,135,0.0,0.2,42,0.00,,,0.00,WUHU216HW,2013-03-29 03:05:00,
2013-03-28 19:10:00,32.4,11.3,29.90,ENE,68,0.0,0.2,41,0.00,,,0.00,WUHU216HW,2013-03-29 03:10:00,
2013-03-28 19:15:00,32.0,11.4,29.90,East,90,0.0,0.0,42,0.00,,,0.00,WUHU216HW,2013-03-29 03:15:00,
2013-03-28 19:20:00,32.0,11.4,29.90,East,90,0.0,0.0,42,0.00,,,0.00,WUHU216HW,2013-03-29 03:20:00,
2013-03-28 19:25:00,31.5,11.4,29.90,East,90,0.0,0.0,43,0.00,,,0.00,WUHU216HW,2013-03-29 03:25:00,
2013-03-28 19:30:00,31.5,11.4,29.90,East,90,0.0,0.0,43,0.00,,,0.00,WUHU216HW,2013-03-29 03:30:00,
2013-03-28 19:35:00,31.1,11.2,29.90,NE,45,0.0,0.0,43,0.00,,,0.00,WUHU216HW,2013-03-29 03:35:00,
2013-03-28 19:40:00,30.8,11.4,29.90,ESE,113,0.0,0.0,44,0.00,,,0.00,WUHU216HW,2013-03-29 03:40:00,
2013-03-28 19:45:00,30.6,11.2,29.90,ESE,113,0.0,0.0,44,0.00,,,0.00,WUHU216HW,2013-03-29 03:45:00,
2013-03-28 19:50:00,30.4,11.0,29.90,ESE,113,0.0,0.0,44,0.00,,,0.00,WUHU216HW,2013-03-29 03:50:00,
2013-03-28 19:55:00,30.1,11.2,29.90,ESE,113,0.0,0.0,45,0.00,,,0.00,WUHU216HW,2013-03-29 03:55:00,
2013-03-28 20:00:00,29.9,11.0,29.90,ESE,113,0.0,0.0,45,0.00,,,0.00,WUHU216HW,2013-03-29 04:00:00,
2013-03-28 20:05:00,29.3,10.5,29.90,ESE,113,0.0,0.0,45,0.00,,,0.00,WUHU216HW,2013-03-29 04:05:00,
2013-03-28 20:10:00,28.8,10.1,29.90,ESE,113,0.0,0.0,45,0.00,,,0.00,WUHU216HW,2013-03-29 04:10:00,
2013-03-28 20:15:00,28.3,10.1,29.90,ESE,113,0.0,0.0,46,0.00,,,0.00,WUHU216HW,2013-03-29 04:15:00,
2013-03-28 20:20:00,27.9,10.2,29.90,ESE,113,0.0,0.0,47,0.00,,,0.00,WUHU216HW,2013-03-29 04:20:00,
2013-03-28 20:25:00,27.7,10.0,29.90,ESE,113,0.0,0.0,47,0.00,,,0.00,WUHU216HW,2013-03-29 04:25:00,
2013-03-28 20:30:00,27.4,10.2,29.89,ESE,113,0.0,0.0,48,0.00,,,0.00,WUHU216HW,2013-03-29 04:30:00,
2013-03-28 20:35:00,27.2,10.0,29.90,SE,135,0.0,0.0,48,0.00,,,0.00,WUHU216HW,2013-03-29 04:35:00,
2013-03-28 20:40:00,27.0,9.8,29.90,ESE,113,0.0,0.0,48,0.00,,,0.00,WUHU216HW,2013-03-29 04:40:00,
2013-03-28 20:45:00,26.6,10.0,29.90,SE,135,0.0,0.0,49,0.00,,,0.00,WUHU216HW,2013-03-29 04:45:00,
2013-03-28 20:50:00,26.1,10.0,29.89,NNE,23,0.0,0.0,50,0.00,,,0.00,WUHU216HW,2013-03-29 04:50:00,
2013-03-28 20:55:00,25.9,9.8,29.89,ENE,68,0.0,0.0,50,0.00,,,0.00,WUHU216HW,2013-03-29 04:55:00,
2013-03-28 21:00:00,25.6,9.5,29.89,East,90,0.0,0.0,50,0.00,,,0.00,WUHU216HW,2013-03-29 05:00:00,
2013-03-28 21:05:00,25.2,9.2,29.89,East,90,0.0,0.0,50,0.00,,,0.00,WUHU216HW,2013-03-29 05:05:00,
2013-03-28 21:10:00,24.7,8.6,29.90,East,90,0.0,0.0,50,0.00,,,0.00,WUHU216HW,2013-03-29 05:10:00,
2013-03-28 21:15:00,24.1,8.2,29.89,East,90,0.0,0.0,50,0.00,,,0.00,WUHU216HW,2013-03-29 05:15:00,
2013-03-28 21:20:00,23.9,8.4,29.89,East,90,0.0,0.0,51,0.00,,,0.00,WUHU216HW,2013-03-29 05:20:00,
2013-03-28 21:25:00,23.6,8.5,29.89,East,90,0.0,0.0,52,0.00,,,0.00,WUHU216HW,2013-03-29 05:25:00,
2013-03-28 21:30:00,23.4,8.3,29.89,East,90,0.0,0.0,52,0.00,,,0.00,WUHU216HW,2013-03-29 05:30:00,
2013-03-28 21:35:00,23.0,8.8,29.89,North,0,0.0,0.0,54,0.00,,,0.00,WUHU216HW,2013-03-29 05:35:00,
2013-03-28 21:40:00,23.0,8.8,29.89,NW,315,0.0,0.4,54,0.00,,,0.00,WUHU216HW,2013-03-29 05:40:00,
2013-03-28 21:45:00,23.0,9.5,29.89,NW,315,0.0,0.4,56,0.00,,,0.00,WUHU216HW,2013-03-29 05:45:00,
2013-03-28 21:50:00,22.7,9.3,29.89,ESE,113,0.7,0.7,56,0.00,,,0.00,WUHU216HW,2013-03-29 05:50:00,
2013-03-28 21:55:00,22.0,8.6,29.89,West,270,0.0,0.7,56,0.00,,,0.00,WUHU216HW,2013-03-29 05:55:00,
2013-03-28 22:00:00,22.0,8.6,29.89,East,90,0.0,0.2,56,0.00,,,0.00,WUHU216HW,2013-03-29 06:00:00,
2013-03-28 22:05:00,21.8,8.4,29.89,ENE,68,0.0,0.0,56,0.00,,,0.00,WUHU216HW,2013-03-29 06:05:00,
2013-03-28 22:10:00,21.4,8.0,29.89,North,0,0.0,0.0,56,0.00,,,0.00,WUHU216HW,2013-03-29 06:10:00,
2013-03-28 22:15:00,20.9,8.4,29.89,NNW,338,0.0,0.0,58,0.00,,,0.00,WUHU216HW,2013-03-29 06:15:00,
2013-03-28 22:20:00,20.7,8.2,29.89,NNW,338,0.0,0.0,58,0.00,,,0.00,WUHU216HW,2013-03-29 06:20:00,
2013-03-28 22:25:00,20.5,8.4,29.89,NNW,338,0.0,0.0,59,0.00,,,0.00,WUHU216HW,2013-03-29 06:25:00,
2013-03-28 22:30:00,20.3,7.8,29.89,North,0,0.0,0.0,58,0.00,,,0.00,WUHU216HW,2013-03-29 06:30:00,
2013-03-28 22:35:00,20.2,8.1,29.89,North,0,0.0,0.0,59,0.00,,,0.00,WUHU216HW,2013-03-29 06:35:00,
2013-03-28 22:40:00,20.3,7.8,29.88,North,0,0.0,0.0,58,0.00,,,0.00,WUHU216HW,2013-03-29 06:40:00,
2013-03-28 22:45:00,20.2,8.1,29.89,North,0,0.0,0.0,59,0.00,,,0.00,WUHU216HW,2013-03-29 06:45:00,
2013-03-28 22:50:00,19.8,6.9,29.89,North,0,0.0,0.0,57,0.00,,,0.00,WUHU216HW,2013-03-29 06:50:00,
2013-03-28 22:55:00,19.3,6.8,29.89,North,0,0.0,0.0,58,0.00,,,0.00,WUHU216HW,2013-03-29 06:55:00,
2013-03-28 23:00:00,19.1,6.7,29.89,ENE,68,0.0,0.0,58,0.00,,,0.00,WUHU216HW,2013-03-29 07:00:00,
2013-03-28 23:05:00,18.9,6.8,29.89,North,0,0.0,0.0,59,0.00,,,0.00,WUHU216HW,2013-03-29 07:05:00,
2013-03-28 23:10:00,18.7,6.7,29.89,North,0,0.0,0.0,59,0.00,,,0.00,WUHU216HW,2013-03-29 07:10:00,
2013-03-28 23:15:00,18.5,6.9,29.89,North,0,0.0,0.0,60,0.00,,,0.00,WUHU216HW,2013-03-29 07:15:00,
2013-03-28 23:20:00,18.5,6.9,29.89,ESE,113,0.0,0.0,60,0.00,,,0.00,WUHU216HW,2013-03-29 07:20:00,
2013-03-28 23:25:00,18.4,6.8,29.89,NNE,23,0.0,0.0,60,0.00,,,0.00,WUHU216HW,2013-03-29 07:25:00,
2013-03-28 23:30:00,18.4,7.1,29.89,NNE,23,0.0,0.0,61,0.00,,,0.00,WUHU216HW,2013-03-29 07:30:00,
2013-03-28 23:35:00,18.4,6.8,29.89,NW,315,0.0,0.0,60,0.00,,,0.00,WUHU216HW,2013-03-29 07:35:00,
2013-03-28 23:40:00,18.0,6.8,29.89,NW,315,0.0,0.0,61,0.00,,,0.00,WUHU216HW,2013-03-29 07:40:00,
2013-03-28 23:45:00,18.2,6.9,29.89,NW,315,0.0,0.0,61,0.00,,,0.00,WUHU216HW,2013-03-29 07:45:00,
2013-03-28 23:50:00,18.2,6.9,29.89,NW,315,0.0,0.0,61,0.00,,,0.00,WUHU216HW,2013-03-29 07:50:00,
2013-03-28 23:55:00,18.0,6.8,29.89,NNW,338,0.0,0.0,61,0.00,,,0.00,WUHU216HW,2013-03-29 07:55:00,